, WY

(GMT )
South Pass

Weather History for KFWZ - December, 2012

Change the Weather History Date:

Wednesday, December 5, 2012

  Actual Average Record
Temperature  
Mean Temperature 34 °F -  
Max Temperature 39 °F - - ()
Min Temperature 30 °F - - ()
Degree Days  
Heating Degree Days 30    
Moisture  
Dew Point 30 °F    
Average Humidity 85    
Maximum Humidity 100    
Minimum Humidity 55    
Precipitation  
Precipitation 0.00 in - - ()
Sea Level Pressure  
Sea Level Pressure 29.92 in    
Wind  
Wind Speed 27 mph (WSW)    
Max Wind Speed 45 mph    
Max Gust Speed 56 mph    
Visibility 8 miles    
Events Fog , Snow    
Averages and records for this station are not official NWS values.
T = Trace of Precipitation, MM = Missing Value Source: NWS Daily Summary

Daily Weather History Graph

Daily Weather History Graph

Search for Another Location

Airport or City:

Trip Planner

Search our weather history database for the weather conditions in past years. The results will help you decide how hot, cold, wet, or windy it might be!

Date:

Astronomy

Dec. 05, 2012 Rise Set
Actual Time 7:29 AM MST 4:42 PM MST
Civil Twilight 6:58 AM MST 5:13 PM MST
Nautical Twilight 6:22 AM MST 5:49 PM MST
Astronomical Twilight 5:48 AM MST 6:23 PM MST
Moon 11:41 PM MST (12/5) 11:49 AM MST (12/5)
Length of Visible Light 10h 15m
Length of Day
9h 12m
Waning Gibbous, 59% of the Moon is Illuminated
Dec 5
Waning Gibbous
Dec 6
Last Quarter
Dec 13
New
Dec 19
First Quarter
Dec 28
Full

Hourly Weather History & Observations

Time (MST) Temp. Windchill Dew Point Humidity Pressure Visibility Wind Dir Wind Speed Gust Speed Precip Events Conditions
12:15 AM 33.8 °F 20.3 °F 33.8 °F 100% 30.01 in 4.0 mi WSW 28.8 mph 41.4 mph N/A   Overcast
12:35 AM 33.8 °F 19.4 °F 33.8 °F 100% 30.00 in 5.0 mi WSW 33.4 mph 47.2 mph N/A   Overcast
12:55 AM 35.6 °F 21.5 °F 33.8 °F 93% 29.96 in 5.0 mi West 35.7 mph 47.2 mph N/A   Overcast
1:15 AM 37.4 °F 23.6 °F 33.8 °F 87% 29.94 in 10.0 mi West 38.0 mph 52.9 mph N/A   Overcast
1:35 AM 37.4 °F 23.6 °F 32.0 °F 81% 29.92 in 10.0 mi West 38.0 mph 47.2 mph N/A   Overcast
1:55 AM 37.4 °F 23.3 °F 32.0 °F 81% 29.92 in 10.0 mi West 40.3 mph 51.8 mph N/A   Overcast
2:15 AM 37.4 °F 23.5 °F 32.0 °F 81% 29.92 in 10.0 mi West 39.1 mph 55.2 mph N/A   Overcast
2:35 AM 39.2 °F 26.1 °F 32.0 °F 75% 29.93 in 10.0 mi West 38.0 mph 51.8 mph N/A   Overcast
2:55 AM 39.2 °F 26.3 °F 32.0 °F 75% 29.95 in 10.0 mi West 36.8 mph 54.1 mph N/A   Overcast
3:15 AM 39.2 °F 25.2 °F 32.0 °F 75% 29.95 in 10.0 mi West 44.9 mph 55.2 mph N/A   Overcast
3:35 AM 39.2 °F 26.6 °F 32.0 °F 75% 29.95 in 10.0 mi West 34.5 mph 51.8 mph N/A   Overcast
3:55 AM 39.2 °F 26.1 °F 32.0 °F 75% 29.94 in 10.0 mi West 38.0 mph 56.4 mph N/A   Overcast
4:15 AM 37.4 °F 23.5 °F 32.0 °F 81% 29.93 in 10.0 mi West 39.1 mph 50.6 mph N/A   Overcast
4:55 AM 39.2 °F 26.5 °F 32.0 °F 75% 29.91 in 10.0 mi West 35.7 mph 54.1 mph N/A   Overcast
5:15 AM 39.2 °F 25.8 °F 32.0 °F 75% 29.91 in 10.0 mi West 40.3 mph 51.8 mph N/A   Overcast
5:35 AM 39.2 °F 26.6 °F 32.0 °F 75% 29.90 in 10.0 mi West 34.5 mph 46.0 mph N/A   Overcast
8:15 AM 35.6 °F 25.5 °F 32.0 °F 87% 29.94 in 10.0 mi West 17.3 mph 31.1 mph N/A   Overcast
8:35 AM 35.6 °F 24.8 °F 32.0 °F 87% 29.94 in 10.0 mi West 19.6 mph 27.6 mph N/A   Overcast
8:55 AM 35.6 °F 24.8 °F 32.0 °F 87% 29.94 in 10.0 mi West 19.6 mph 32.2 mph N/A   Overcast
9:15 AM 35.6 °F 25.9 °F 32.0 °F 87% 29.93 in 10.0 mi West 16.1 mph 26.5 mph N/A   Overcast
9:35 AM 35.6 °F 23.0 °F 32.0 °F 87% 29.92 in 10.0 mi WSW 27.6 mph 38.0 mph N/A   Overcast
9:55 AM 35.6 °F 22.3 °F 32.0 °F 87% 29.91 in 10.0 mi West 31.1 mph 42.6 mph N/A   Overcast
10:15 AM 35.6 °F 23.0 °F 32.0 °F 87% 29.91 in 10.0 mi WSW 27.6 mph 42.6 mph N/A   Overcast
10:35 AM 35.6 °F 21.7 °F 32.0 °F 87% 29.91 in 10.0 mi WSW 34.5 mph 43.7 mph N/A   Overcast
10:55 AM 35.6 °F 22.1 °F 32.0 °F 87% 29.91 in 7.0 mi WSW 32.2 mph 44.9 mph N/A   Overcast
11:15 AM 33.8 °F 20.1 °F 32.0 °F 93% 29.91 in 5.0 mi WSW 29.9 mph 43.7 mph N/A Snow Light Snow
11:55 AM 33.8 °F 19.2 °F 32.0 °F 93% 29.88 in 1.5 mi WSW 34.5 mph 41.4 mph N/A Snow Light Snow
12:15 PM 33.8 °F 19.2 °F 32.0 °F 93% 29.87 in 1.0 mi WSW 34.5 mph 46.0 mph N/A Snow Light Snow
12:35 PM 33.8 °F 19.0 °F 32.0 °F 93% 29.86 in 1.2 mi WSW 35.7 mph 43.7 mph N/A Snow Light Snow
12:55 PM 33.8 °F 20.1 °F 32.0 °F 93% 29.86 in 1.2 mi WSW 29.9 mph 41.4 mph N/A Snow Light Snow
1:15 PM 33.8 °F 19.2 °F 32.0 °F 93% 29.85 in 1.0 mi WSW 34.5 mph 46.0 mph N/A Snow Light Snow
1:35 PM 33.8 °F 19.9 °F 32.0 °F 93% 29.85 in 3.0 mi WSW 31.1 mph 41.4 mph N/A   Overcast
2:15 PM 33.8 °F 19.2 °F 32.0 °F 93% 29.85 in 1.0 mi WSW 34.5 mph 43.7 mph N/A Snow Light Snow
2:35 PM 33.8 °F 20.3 °F 32.0 °F 93% 29.85 in 1.0 mi WSW 28.8 mph 43.7 mph N/A Snow Light Snow
2:55 PM 33.8 °F 20.8 °F 32.0 °F 93% 29.86 in 1.5 mi WSW 26.5 mph 41.4 mph N/A Snow Light Snow
3:15 PM 33.8 °F 23.2 °F 32.0 °F 93% 29.88 in 0.8 mi West 17.3 mph 39.1 mph N/A Snow Light Snow
3:55 PM 33.8 °F 28.6 °F 33.8 °F 100% 29.91 in 5.0 mi NNW 5.8 mph - N/A Snow Light Snow
4:15 PM 33.8 °F 29.6 °F 32.0 °F 93% 29.91 in 10.0 mi North 4.6 mph - N/A   Overcast
4:55 PM 33.8 °F 27.7 °F 32.0 °F 93% 29.92 in 10.0 mi WNW 6.9 mph - N/A   Overcast
5:15 PM 33.8 °F 28.6 °F 32.0 °F 93% 29.94 in 10.0 mi NNW 5.8 mph 16.1 mph N/A   Overcast
5:35 PM 33.8 °F 27.7 °F 32.0 °F 93% 29.94 in 10.0 mi WNW 6.9 mph - N/A   Overcast
6:15 PM 33.8 °F 27.7 °F 30.2 °F 87% 29.94 in 10.0 mi WSW 6.9 mph 19.6 mph N/A   Overcast
6:35 PM 33.8 °F 28.6 °F 28.4 °F 81% 29.96 in 10.0 mi West 5.8 mph - N/A   Overcast
6:55 PM 33.8 °F 23.2 °F 26.6 °F 75% 29.94 in 10.0 mi WSW 17.3 mph 23.0 mph N/A   Overcast
7:15 PM 33.8 °F 24.3 °F 24.8 °F 70% 29.95 in 10.0 mi West 13.8 mph - N/A   Overcast
7:35 PM 32.0 °F 23.0 °F 26.6 °F 80% 29.95 in 10.0 mi WSW 11.5 mph - N/A   Overcast
7:55 PM 32.0 °F 24.8 °F 30.2 °F 93% 29.94 in 10.0 mi SSW 8.1 mph 19.6 mph N/A   Overcast
8:15 PM 30.2 °F 21.9 °F 30.2 °F 100% 29.94 in 10.0 mi SSW 9.2 mph - N/A   Overcast
8:35 PM 30.2 °F 21.9 °F 28.4 °F 93% 29.94 in 10.0 mi SSW 9.2 mph - N/A   Overcast
8:55 PM 30.2 °F 23.4 °F 30.2 °F 100% 29.94 in 0.2 mi South 6.9 mph - N/A Fog Light Freezing Fog
9:15 PM 30.2 °F 21.9 °F 28.4 °F 93% 29.94 in 10.0 mi South 9.2 mph - N/A   Mostly Cloudy
9:35 PM 30.2 °F 22.6 °F 26.6 °F 86% 29.92 in 10.0 mi SSW 8.1 mph - N/A   Overcast
9:55 PM 30.2 °F 26.7 °F 23.0 °F 75% 29.93 in 10.0 mi SSW 3.5 mph - N/A   Overcast
10:15 PM 32.0 °F 28.7 °F 21.2 °F 64% 29.92 in 10.0 mi WSW 3.5 mph - N/A   Overcast
10:35 PM 32.0 °F 24.2 °F 21.2 °F 64% 29.92 in 10.0 mi SW 9.2 mph - N/A   Overcast
10:55 PM 32.0 °F 23.6 °F 17.6 °F 55% 29.94 in 10.0 mi WSW 10.4 mph 16.1 mph N/A   Overcast
11:15 PM 30.2 °F 21.3 °F 19.4 °F 64% 29.94 in 10.0 mi WSW 10.4 mph - N/A   Overcast
11:35 PM 30.2 °F 22.6 °F 19.4 °F 64% 29.94 in 10.0 mi West 8.1 mph - N/A   Overcast
11:55 PM 30.2 °F 20.8 °F 19.4 °F 64% 29.94 in 10.0 mi West 11.5 mph - N/A   Overcast